Voltar ao catálogo

COSMOS 1247 DEB

AtivoHEO
NORAD 12984·DEBRIS·🇷🇺 Russia

Lançado Feb 19, 1981 de Plesetsk Cosmodrome

Loading…

Próximas Passagens (próximas 24 horas)

TLE

AtualizadoSource: Space-Track

Época: Sep 11, 2026, 07:57 UTC

1 12984U 81016F   26254.33175779 -.00000676  00000-0  00000-0 0  9991
2 12984  69.6605   1.3047 6093563 335.9505   4.7426  2.02678686331718

Acompanhe COSMOS 1247 DEB em tempo real com AllMySat

Download on the App Store